Flag for Belarus Weather past 2 weeks in Barysaw, Belarus

Now
54 °F

Partly sunny.


Feels Like: 50 °F
Forecast: 47 / 61 °F
Wind: 10 mph from Southeast

Location: Minsk

Current Time: Sep 21, 2014 at 4:11:37 PM

Latest Report: Sep 21, 2014 at 3:30 PM


Visibility: N/A

Pressure: 29.89 "Hg

Humidity: 72%

Dew point: 45 °F

Location of BarysawLocation

Historic Weather in Barysaw — Graph

°F

Barysaw temperature yesterday

Maximum temperature yesterday: 63 °F (at 1:30 PM)
Minimum temperature yesterday: 39 °F (at 5:30 AM)
Average temperature yesterday: 51 °F

Past Weeks' High & Low Weather Summary

 TemperatureHumidityPressure
High77 °F (Sep 13, 4:30 PM)100% (Sep 7, 4:30 AM)30.39 "Hg (Sep 7, 4:30 AM)
Low34 °F (Sep 16, 7:00 AM)27% (Sep 12, 2:00 PM)29.92 "Hg (Sep 21, 12:30 PM)
Average56 °F77%30.20 "Hg
* Reported Sep 6 2:00 PM — Sep 21 2:30 PM, Barysaw, Weather by CustomWeather, © 2014

Note: Actual official high and low records may vary slightly from our data, if they occured in-between our weather recording intervals... More about our weather records

Advertising

Barysaw weather history for previous 24 hours

 ConditionsComfort  
Time TempWeatherWind HumidityBarometerVisibility
2:30 PM
Sep 21
54 °FSunny.10 mph72%29.92 "Hg10 mi
2:00 PM54 °FPartly sunny.10 mph72%29.92 "HgN/A
1:30 PM54 °FPartly sunny.8 mph72%29.92 "HgN/A
1:00 PM52 °FPartly sunny.8 mph77%29.92 "HgN/A
12:30 PM52 °FPartly sunny.8 mph77%29.92 "HgN/A
12:00 PM54 °FBroken clouds.8 mph72%29.95 "HgN/A
11:30 AM54 °FBroken clouds.8 mph77%29.95 "HgN/A
11:00 AM54 °FSunny.6 mph72%29.95 "Hg10 mi
10:30 AM54 °FSunny.8 mph72%29.95 "Hg10 mi
10:00 AM54 °FSunny.3 mph72%29.95 "Hg10 mi
9:30 AM52 °FPassing clouds.3 mph82%29.95 "HgN/A
9:00 AM48 °FSunny.3 mph94%29.95 "Hg10 mi
8:30 AM48 °FSunny.8 mph87%29.95 "Hg10 mi
8:00 AM48 °FSunny.8 mph87%29.95 "Hg10 mi
7:30 AM48 °FClear.8 mph87%29.95 "Hg10 mi
7:00 AM48 °FClear.10 mph87%29.95 "Hg10 mi
6:30 AM48 °FClear.8 mph94%29.95 "Hg4 mi
5:30 AM46 °FClear.1 mph100%29.98 "Hg4 mi
5:00 AM46 °FPartly cloudy.No wind100%29.98 "Hg5 mi
4:30 AM48 °FPartly cloudy.3 mph94%30.01 "Hg6 mi
4:00 AM48 °FSprinkles. Overcast.3 mph94%29.98 "Hg6 mi
3:30 AM48 °FSprinkles. Overcast.6 mph94%30.01 "Hg4 mi
3:00 AM48 °FLight rain. Overcast.1 mph94%30.01 "Hg4 mi
2:30 AM48 °FLight rain. Clear.3 mph100%30.01 "Hg5 mi
2:00 AM48 °FLight rain. Clear.3 mph94%30.01 "Hg6 mi
1:30 AM48 °FLight rain. Clear.3 mph94%30.04 "Hg4 mi
1:00 AM50 °FSprinkles. Passing clouds.6 mph88%30.04 "Hg6 mi
12:30 AM50 °FSprinkles. Passing clouds.3 mph88%30.04 "Hg6 mi
12:00 AM52 °FSprinkles. Passing clouds.3 mph77%30.04 "Hg4 mi
11:30 PM
Sep 20
52 °FSprinkles. Passing clouds.6 mph77%30.07 "Hg4 mi
11:03 PM52 °FSprinkles. Passing clouds.8 mph88%30.07 "Hg5 mi
10:30 PM54 °FSprinkles. Passing clouds.3 mph63%30.04 "HgN/A
10:00 PM54 °FPassing clouds.1 mph63%30.07 "HgN/A
9:30 PM54 °FClear.8 mph67%30.04 "Hg10 mi
9:00 PM55 °FPassing clouds.6 mph63%30.07 "HgN/A
8:30 PM55 °FPassing clouds.6 mph63%30.07 "HgN/A
4:30 PM61 °FSunny.8 mph42%30.07 "Hg10 mi
4:00 PM63 °FSunny.8 mph39%30.09 "Hg10 mi
Weather by CustomWeather, © 2014

See weather overviewHow to use our weather pages